STARLINK-1650 (46573 NORAD) Tracking and Keplerian Element Data

This shows tracking and keplerian element data for the satellite.

Feedback or suggestion? Click here.




ElementValue
Catalog46573
NameSTARLINK-1650
Epoch Orbit440
Epoch Day303.25001157
Epoch Year2020
RAAN330.1189
Inclination53.002
Eccentricity0.0001299
Argument of Perigee62.8387
Mean Anonmoly168.6909
Mean Motion15.62765773
Decay Rate3.172E-05
L11 46573U 20070AT 20303.25001157 .00003172 00000-0 40442-4 0 9994
L22 46573 53.0020 330.1189 0001299 62.8387 168.6909 15.62765773 4403

Live tracking and technical data element details for STARLINK-1650 (NORAD 46573). STARLINK-1650 can be tracked NOW for your location showing map with azimuth and elevation plus other details from your city location.

Track the satellite on the map from your city or location and see movement details for azimuth, elevation, latitude, longitude, range, height, and movement on the map or in text.







IsCatalogInMostPopularTable: catalog: 46573, numindb: 3
Update: records affected: 1



GetName: 46573 STARLINK-1650

Hit Count: updated at: Fri, 30 Oct 2020 01:11:59 GMT